TBA6105 ZPJH-ZLXY

Flight info

Callsign TBA6105
Flight time N/A
Altitude 35100
Route ZPJH BIDR9Y BIDRU A581 SGM W144 IGNAK W179 WFX W81 APIMI W275 NSH NSH1Z ZLXY
Aircraft A319/M-SDE2E3FGHIJ1RWXY/SDE2E3FGILRWXY

Departure

Time N/A
Airport Xishuangbanna Gasa International Airport (ZPJH)

Arrival

Time 2026-04-21 07:47
Airport Xi'an Xianyang International Airport (ZLXY)
Time Latitude Longitude Altitude Speed Heading
2026-04-21 06:36 28.98359 104.27780 35006 ft 455 kts 347°
2026-04-21 06:36 29.04608 104.27435 35008 ft 455 kts 347°
2026-04-21 06:37 29.10933 104.27093 35011 ft 455 kts 347°
2026-04-21 06:37 29.17254 104.26742 35009 ft 455 kts 347°
2026-04-21 06:38 29.23576 104.26387 35010 ft 455 kts 347°
2026-04-21 06:38 29.29979 104.26644 35008 ft 471 kts 358°
2026-04-21 06:39 29.36451 104.27758 35009 ft 471 kts 358°
2026-04-21 06:39 29.42927 104.28857 35013 ft 470 kts 358°
2026-04-21 06:40 29.49399 104.29951 35017 ft 470 kts 358°
2026-04-21 06:40 29.55864 104.31059 35012 ft 470 kts 358°
2026-04-21 06:41 29.62166 104.32135 35014 ft 469 kts 357°
2026-04-21 06:41 29.68624 104.33227 35013 ft 469 kts 357°
2026-04-21 06:42 29.75071 104.34329 35013 ft 468 kts 356°
2026-04-21 06:42 29.81509 104.35436 35018 ft 467 kts 356°
2026-04-21 06:43 29.87938 104.36537 35021 ft 467 kts 356°
2026-04-21 06:43 29.94355 104.37637 35010 ft 466 kts 356°
2026-04-21 06:44 30.00720 104.38738 35022 ft 465 kts 356°
2026-04-21 06:44 30.07121 104.39836 35027 ft 465 kts 356°
2026-04-21 06:45 30.13509 104.40923 35019 ft 464 kts 356°
2026-04-21 06:45 30.19888 104.42026 35022 ft 463 kts 356°
2026-04-21 06:46 30.26260 104.43141 35020 ft 463 kts 356°
2026-04-21 06:46 30.32623 104.44249 35017 ft 462 kts 356°
2026-04-21 06:47 30.38975 104.45354 35024 ft 462 kts 356°
2026-04-21 06:47 30.45325 104.46464 35022 ft 461 kts 356°
2026-04-21 06:48 30.51665 104.47588 35021 ft 461 kts 357°
2026-04-21 06:48 30.54837 104.48327 35019 ft 473 kts
2026-04-21 06:48 30.57940 104.49779 35019 ft 491 kts 18°
2026-04-21 06:48 30.60829 104.52014 35016 ft 508 kts 31°
2026-04-21 06:49 30.63322 104.54994 35017 ft 523 kts 45°
2026-04-21 06:49 30.67124 104.62336 35012 ft 532 kts 54°
2026-04-21 06:50 30.70752 104.69827 35010 ft 532 kts 54°
2026-04-21 06:50 30.74394 104.77324 35011 ft 532 kts 54°
2026-04-21 06:51 30.78029 104.84815 35011 ft 532 kts 54°
2026-04-21 06:51 30.81659 104.92303 35018 ft 531 kts 54°
2026-04-21 06:52 30.85280 104.99790 35027 ft 530 kts 55°
2026-04-21 06:52 30.88885 105.07266 35030 ft 529 kts 55°
2026-04-21 06:53 30.92477 105.14731 35033 ft 528 kts 55°
2026-04-21 06:53 30.96056 105.22183 35040 ft 526 kts 55°
2026-04-21 06:54 30.99621 105.29612 35040 ft 524 kts 55°
2026-04-21 06:54 31.03164 105.37030 35034 ft 523 kts 55°
2026-04-21 06:55 31.06696 105.44426 35044 ft 521 kts 56°
2026-04-21 06:55 31.10209 105.51817 35032 ft 520 kts 56°
2026-04-21 06:56 31.13695 105.59199 35035 ft 519 kts 56°
2026-04-21 06:56 31.17148 105.66516 35036 ft 517 kts 56°
2026-04-21 06:57 31.20616 105.73861 35038 ft 516 kts 56°
2026-04-21 06:57 31.24066 105.81193 35040 ft 514 kts 56°
2026-04-21 06:58 31.27522 105.88556 35038 ft 513 kts 56°
2026-04-21 06:58 31.30948 105.95855 35038 ft 511 kts 57°
2026-04-21 06:59 31.34359 106.03146 35036 ft 510 kts 56°
2026-04-21 06:59 31.38525 106.09693 35031 ft 497 kts 40°
2026-04-21 07:00 31.42728 106.14850 35033 ft 496 kts 40°
2026-04-21 07:00 31.47461 106.20726 35030 ft 496 kts 41°
2026-04-21 07:01 31.52152 106.26636 35031 ft 495 kts 42°
2026-04-21 07:01 31.59180 106.35515 35026 ft 495 kts 42°
2026-04-21 07:02 31.63874 106.41418 35025 ft 495 kts 41°
2026-04-21 07:02 31.68598 106.47292 35026 ft 494 kts 41°
2026-04-21 07:03 31.73338 106.53135 35016 ft 494 kts 41°
2026-04-21 07:03 31.77271 106.58012 35018 ft 494 kts 41°
2026-04-21 07:04 31.81991 106.63889 35016 ft 495 kts 42°
2026-04-21 07:04 31.86708 106.69786 35018 ft 495 kts 42°
2026-04-21 07:05 31.91428 106.75687 35028 ft 495 kts 42°
2026-04-21 07:05 31.96149 106.81579 35033 ft 495 kts 42°
2026-04-21 07:06 32.00859 106.87487 34858 ft 493 kts 43°
2026-04-21 07:06 32.03205 106.90438 34334 ft 492 kts 43°
2026-04-21 07:06 32.05540 106.93379 34110 ft 492 kts 43°
2026-04-21 07:07 32.07880 106.96325 33865 ft 492 kts 44°
2026-04-21 07:07 32.10226 106.99260 33611 ft 492 kts 43°
2026-04-21 07:07 32.12579 107.02186 33343 ft 491 kts 43°
2026-04-21 07:07 32.14933 107.05110 33089 ft 492 kts 43°
2026-04-21 07:08 32.17292 107.08041 32836 ft 492 kts 44°
2026-04-21 07:08 32.19647 107.10970 32584 ft 493 kts 44°
2026-04-21 07:08 32.22001 107.13909 32337 ft 493 kts 44°
2026-04-21 07:08 32.24294 107.16932 32086 ft 495 kts 50°
2026-04-21 07:09 32.26217 107.20315 31843 ft 497 kts 59°
2026-04-21 07:09 32.27691 107.24017 31598 ft 499 kts 69°
2026-04-21 07:09 32.28871 107.27874 31359 ft 499 kts 69°
2026-04-21 07:09 32.30052 107.31730 31123 ft 500 kts 69°
2026-04-21 07:10 32.31242 107.35583 30892 ft 500 kts 69°
2026-04-21 07:10 32.32437 107.39447 30656 ft 499 kts 69°
2026-04-21 07:10 32.33627 107.43301 30418 ft 498 kts 69°
2026-04-21 07:10 32.34808 107.47140 30194 ft 496 kts 70°
2026-04-21 07:11 32.35964 107.50918 29958 ft 495 kts 70°
2026-04-21 07:11 32.37133 107.54737 29681 ft 493 kts 70°
2026-04-21 07:11 32.38297 107.58544 29423 ft 491 kts 70°
2026-04-21 07:11 32.39456 107.62334 29154 ft 489 kts 70°
2026-04-21 07:12 32.40609 107.66107 28893 ft 487 kts 69°
2026-04-21 07:12 32.41756 107.69867 28629 ft 485 kts 69°
2026-04-21 07:12 32.42894 107.73608 28372 ft 483 kts 69°
2026-04-21 07:12 32.44027 107.77339 28117 ft 480 kts 69°
2026-04-21 07:13 32.45152 107.81051 27863 ft 478 kts 69°
2026-04-21 07:13 32.46269 107.84745 27617 ft 475 kts 69°
2026-04-21 07:13 32.47380 107.88424 27375 ft 473 kts 69°
2026-04-21 07:13 32.48486 107.92086 27127 ft 471 kts 69°
2026-04-21 07:14 32.49728 107.95661 26873 ft 467 kts 60°
2026-04-21 07:14 32.51481 107.98871 26637 ft 462 kts 49°
2026-04-21 07:14 32.53693 108.01590 26396 ft 455 kts 37°
2026-04-21 07:14 32.56260 108.03732 26156 ft 449 kts 26°
2026-04-21 07:15 32.59073 108.05252 25919 ft 441 kts 15°
2026-04-21 07:15 32.61992 108.06305 25693 ft 438 kts 13°
2026-04-21 07:15 32.64906 108.07333 25465 ft 436 kts 12°
2026-04-21 07:15 32.67806 108.08358 25232 ft 434 kts 13°
2026-04-21 07:16 32.70691 108.09377 25003 ft 431 kts 12°
2026-04-21 07:16 32.73562 108.10392 24778 ft 429 kts 13°
2026-04-21 07:16 32.76417 108.11404 24548 ft 427 kts 12°
2026-04-21 07:16 32.79262 108.12413 24329 ft 426 kts 12°
2026-04-21 07:17 32.82090 108.13414 24106 ft 423 kts 12°
2026-04-21 07:17 32.84908 108.14413 23882 ft 421 kts 12°
2026-04-21 07:17 32.87711 108.15407 23662 ft 419 kts 12°
2026-04-21 07:17 32.90500 108.16395 23414 ft 418 kts 12°
2026-04-21 07:18 32.93279 108.17382 23153 ft 416 kts 12°
2026-04-21 07:18 32.96051 108.18369 22895 ft 415 kts 12°
2026-04-21 07:18 32.98818 108.19355 22638 ft 415 kts 12°
2026-04-21 07:18 33.01576 108.20342 22386 ft 413 kts 13°
2026-04-21 07:19 33.04328 108.21328 22131 ft 413 kts 13°
2026-04-21 07:19 33.07074 108.22306 21874 ft 412 kts 13°
2026-04-21 07:19 33.09818 108.23282 21626 ft 411 kts 12°
2026-04-21 07:19 33.12554 108.24256 21376 ft 410 kts 13°
2026-04-21 07:20 33.15291 108.25231 21130 ft 410 kts 13°
2026-04-21 07:20 33.18019 108.26206 20887 ft 409 kts 13°
2026-04-21 07:20 33.20740 108.27181 20641 ft 408 kts 13°
2026-04-21 07:20 33.23456 108.28157 20404 ft 408 kts 13°
2026-04-21 07:21 33.26167 108.29134 20160 ft 406 kts 13°
2026-04-21 07:21 33.28837 108.30093 19933 ft 405 kts 13°
2026-04-21 07:21 33.31519 108.31118 19734 ft 406 kts 17°
2026-04-21 07:21 33.34094 108.32517 19706 ft 408 kts 23°
2026-04-21 07:22 33.36632 108.34035 19709 ft 408 kts 23°
2026-04-21 07:22 33.39171 108.35546 19396 ft 407 kts 23°
2026-04-21 07:22 33.41702 108.37054 19055 ft 405 kts 23°
2026-04-21 07:22 33.44212 108.38550 18723 ft 402 kts 23°
2026-04-21 07:23 33.46714 108.40043 18390 ft 401 kts 23°
2026-04-21 07:23 33.49202 108.41530 18016 ft 399 kts 24°
2026-04-21 07:23 33.51678 108.43013 17636 ft 396 kts 23°
2026-04-21 07:23 33.54134 108.44483 17245 ft 393 kts 23°
2026-04-21 07:24 33.56563 108.45939 16879 ft 389 kts 23°
2026-04-21 07:24 33.58974 108.47384 16511 ft 386 kts 23°
2026-04-21 07:24 33.61366 108.48818 16142 ft 382 kts 23°
2026-04-21 07:24 33.63735 108.50239 15788 ft 380 kts 23°
2026-04-21 07:25 33.66088 108.51653 15425 ft 376 kts 23°
2026-04-21 07:25 33.68419 108.53057 15076 ft 374 kts 23°
2026-04-21 07:25 33.70733 108.54450 14731 ft 371 kts 23°
2026-04-21 07:25 33.73030 108.55835 14388 ft 368 kts 23°
2026-04-21 07:26 33.75314 108.57210 14045 ft 366 kts 23°
2026-04-21 07:26 33.77587 108.58571 13690 ft 364 kts 23°
2026-04-21 07:26 33.79841 108.59920 13298 ft 361 kts 23°
2026-04-21 07:26 33.82082 108.61262 12941 ft 358 kts 24°
2026-04-21 07:27 33.84307 108.62598 12884 ft 357 kts 24°
2026-04-21 07:27 33.86533 108.63934 12888 ft 357 kts 24°
2026-04-21 07:27 33.88631 108.65195 12891 ft 358 kts 24°
2026-04-21 07:27 33.90748 108.66468 12898 ft 357 kts 24°
2026-04-21 07:28 33.92968 108.67808 12899 ft 357 kts 24°
2026-04-21 07:28 33.95190 108.69150 12861 ft 357 kts 24°
2026-04-21 07:28 33.97406 108.70488 12469 ft 356 kts 24°
2026-04-21 07:28 33.99615 108.71821 12070 ft 352 kts 24°
2026-04-21 07:29 34.01800 108.73140 11675 ft 350 kts 24°
2026-04-21 07:29 34.03928 108.74426 11291 ft 347 kts 25°
2026-04-21 07:29 34.06053 108.75706 10910 ft 344 kts 25°
2026-04-21 07:29 34.08214 108.76998 10515 ft 341 kts 25°
2026-04-21 07:30 34.10312 108.78245 10151 ft 338 kts 24°
2026-04-21 07:30 34.12402 108.79487 9831 ft 331 kts 25°
2026-04-21 07:30 34.14418 108.80692 9787 ft 315 kts 25°
2026-04-21 07:30 34.16330 108.81836 9796 ft 299 kts 24°
2026-04-21 07:31 34.18147 108.82923 9798 ft 284 kts 24°
2026-04-21 07:31 34.19946 108.83745 9647 ft 273 kts
2026-04-21 07:31 34.21811 108.83857 9374 ft 266 kts 351°
2026-04-21 07:31 34.23567 108.83289 9112 ft 259 kts 334°
2026-04-21 07:32 34.25067 108.82150 8858 ft 253 kts 318°
2026-04-21 07:32 34.26357 108.80730 8599 ft 249 kts 316°
2026-04-21 07:32 34.27627 108.79335 8343 ft 245 kts 316°
2026-04-21 07:32 34.28709 108.77790 8088 ft 239 kts 295°
2026-04-21 07:33 34.29021 108.75869 7929 ft 231 kts 265°
2026-04-21 07:33 34.28513 108.74064 7785 ft 229 kts 236°
2026-04-21 07:33 34.27483 108.72597 7636 ft 229 kts 229°
2026-04-21 07:33 34.26423 108.71159 7485 ft 229 kts 229°
2026-04-21 07:34 34.25365 108.69719 7335 ft 229 kts 229°
2026-04-21 07:34 34.24308 108.68279 7183 ft 227 kts 229°
2026-04-21 07:34 34.23279 108.66874 7026 ft 220 kts 229°
2026-04-21 07:34 34.22276 108.65503 6876 ft 215 kts 229°
2026-04-21 07:35 34.21298 108.64164 6727 ft 210 kts 229°
2026-04-21 07:35 34.20343 108.62858 6579 ft 206 kts 229°
2026-04-21 07:35 34.19396 108.61565 6425 ft 205 kts 229°
2026-04-21 07:35 34.18453 108.60273 6262 ft 205 kts 229°
2026-04-21 07:36 34.17514 108.58986 6109 ft 204 kts 229°
2026-04-21 07:36 34.16575 108.57704 5981 ft 203 kts 229°
2026-04-21 07:36 34.15635 108.56426 5889 ft 203 kts 229°
2026-04-21 07:36 34.14695 108.55151 5891 ft 203 kts 229°
2026-04-21 07:37 34.13985 108.53695 5885 ft 203 kts 253°
2026-04-21 07:37 34.13833 108.52030 5783 ft 205 kts 277°
2026-04-21 07:37 34.14270 108.50405 5524 ft 206 kts 301°
2026-04-21 07:37 34.15241 108.49129 5271 ft 209 kts 326°
2026-04-21 07:38 34.16571 108.48434 5022 ft 210 kts 345°
2026-04-21 07:38 34.17982 108.47958 4759 ft 211 kts 344°
2026-04-21 07:38 34.19389 108.47470 4492 ft 210 kts 344°
2026-04-21 07:38 34.20791 108.46981 4235 ft 209 kts 344°
2026-04-21 07:39 34.22196 108.46540 3980 ft 208 kts 353°
2026-04-21 07:39 34.23603 108.46616 3885 ft 199 kts 14°
2026-04-21 07:39 34.24866 108.47255 3899 ft 197 kts 33°
2026-04-21 07:39 34.25878 108.48357 3900 ft 196 kts 49°
2026-04-21 07:40 34.26779 108.49592 3896 ft 196 kts 49°
2026-04-21 07:40 34.27678 108.50824 3897 ft 195 kts 49°
2026-04-21 07:40 34.28576 108.52055 3896 ft 195 kts 48°
2026-04-21 07:40 34.29474 108.53286 3898 ft 195 kts 48°
2026-04-21 07:41 34.30371 108.54516 3912 ft 190 kts 49°
2026-04-21 07:41 34.31211 108.55669 3886 ft 176 kts 49°
2026-04-21 07:41 34.31982 108.56727 3890 ft 159 kts 48°
2026-04-21 07:41 34.32699 108.57712 3892 ft 153 kts 48°
2026-04-21 07:42 34.33396 108.58669 3903 ft 150 kts 48°
2026-04-21 07:42 34.34074 108.59600 3907 ft 143 kts 48°
2026-04-21 07:42 34.34722 108.60491 3903 ft 140 kts 48°
2026-04-21 07:42 34.35360 108.61367 3906 ft 138 kts 48°
2026-04-21 07:43 34.35996 108.62241 3911 ft 138 kts 48°
2026-04-21 07:43 34.36584 108.63050 3863 ft 138 kts 48°
2026-04-21 07:43 34.37225 108.63931 3737 ft 138 kts 48°
2026-04-21 07:43 34.37855 108.64798 3575 ft 137 kts 48°
2026-04-21 07:44 34.38474 108.65650 3405 ft 136 kts 48°
2026-04-21 07:44 34.39106 108.66520 3221 ft 135 kts 49°
2026-04-21 07:44 34.39716 108.67360 3032 ft 135 kts 49°
2026-04-21 07:44 34.40333 108.68210 2855 ft 134 kts 49°
2026-04-21 07:45 34.40946 108.69053 2669 ft 133 kts 49°
2026-04-21 07:45 34.41554 108.69896 2475 ft 132 kts 48°
2026-04-21 07:45 34.42155 108.70739 2291 ft 132 kts 48°
2026-04-21 07:45 34.42756 108.71578 2133 ft 132 kts 48°
2026-04-21 07:46 34.43374 108.72395 1945 ft 131 kts 47°
2026-04-21 07:46 34.43979 108.73215 1707 ft 130 kts 49°
2026-04-21 07:46 34.44555 108.74051 1521 ft 123 kts 49°
2026-04-21 07:46 34.44996 108.74639 1521 ft 72 kts 48°
2026-04-21 07:47 34.45228 108.74950 1521 ft 37 kts 50°
2026-04-21 07:47 34.45345 108.75119 1521 ft 24 kts 51°
2026-04-21 07:47 34.45429 108.75282 1521 ft 23 kts 66°
2026-04-21 07:47 34.45434 108.75426 1521 ft 14 kts 87°
2026-04-21 07:48 34.45381 108.75467 1521 ft 11 kts 230°
2026-04-21 07:48 34.45324 108.75395 1521 ft 13 kts 225°
2026-04-21 07:48 34.45255 108.75328 1520 ft 13 kts 191°
2026-04-21 07:48 34.45179 108.75372 1518 ft 13 kts 138°
2026-04-21 07:49 34.45107 108.75447 1521 ft 14 kts 140°
2026-04-21 07:49 34.45033 108.75522 1520 ft 13 kts 140°
2026-04-21 07:49 34.44958 108.75599 1518 ft 15 kts 139°
2026-04-21 07:49 34.44877 108.75686 1520 ft 16 kts 138°
2026-04-21 07:50 34.44792 108.75776 1521 ft 17 kts 140°
2026-04-21 07:50 34.44732 108.75745 1517 ft 11 kts 238°
2026-04-21 07:50 34.44682 108.75671 1521 ft 12 kts 229°
2026-04-21 07:50 34.44625 108.75590 1521 ft 13 kts 229°
2026-04-21 07:51 34.44552 108.75610 1520 ft 13 kts 137°
2026-04-21 07:51 34.44498 108.75666 1521 ft 7 kts 141°
2026-04-21 07:51 34.44458 108.75709 1518 ft 9 kts 134°
2026-04-21 07:51 34.44438 108.75736 1519 ft 4 kts 128°
2026-04-21 07:52 34.44427 108.75752 1518 ft 0 kts 129°